Volver al catálogo

STARLINK-37990

ActivoComunicacionesSSO
NORAD 69683·PAYLOAD·🇺🇸 United States

Lanzado Jun 25, 2026 desde Vandenberg Space Force Base

Loading…

Próximos Pases (próximas 24 horas)

TLE

ActualizadoSource: CelesTrak SupGP

Época: Sep 15, 2026, 04:19 UTC

1 69683C 26145G   26258.18034722 -.00053338  00000+0 -16556-2 0  2586
2 69683  97.2851 104.8802 0002087  95.9982 325.2815 15.33468554    19

Sigue STARLINK-37990 en tiempo real con AllMySat

Download on the App Store